Flag for Uzbekistan Weather past 2 weeks in Samarkand, Uzbekistan

Now
63 °F

Scattered clouds.


Feels Like: 63 °F
Forecast: 51 / 72 °F
Wind: 8 mph from Southeast

Location: Samarkand

Current Time: Apr 19, 2015 at 4:33:13 PM

Latest Report: Apr 19, 2015 at 3:30 PM


Visibility: N/A

Pressure: 29.86 "Hg

Humidity: 52%

Dew point: 45 °F

Location of SamarkandLocation

Historic Weather in Samarkand — Graph

°F

Samarkand temperature yesterday

Maximum temperature yesterday: 66 °F (at 3:00 PM)
Minimum temperature yesterday: 48 °F (at 10:30 PM)
Average temperature yesterday: 58 °F

Past Weeks' High & Low Weather Summary

 TemperatureHumidityPressure
High82 °F (Apr 12, 12:00 PM)88% (Apr 14, 9:00 PM)30.30 "Hg (Apr 14, 9:00 PM)
Low39 °F (Apr 16, 5:00 AM)8% (Apr 5, 2:00 PM)29.74 "Hg (Apr 14, 4:00 AM)
Average62 °F51%30.04 "Hg
* Reported Apr 4 3:00 PM — Apr 19 3:00 PM, Samarkand, Weather by CustomWeather, © 2015

Note: Actual official high and low records may vary slightly from our data, if they occured in-between our weather recording intervals... More about our weather records

Advertising

Samarkand weather history for previous 24 hours

 ConditionsComfort  
Time TempWeatherWind HumidityBarometerVisibility
3:00 PM
Sun, Apr 19
63 °FScattered clouds.8 mph49%29.86 "HgN/A
2:30 PM63 °FBroken clouds.9 mph45%29.86 "HgN/A
2:00 PM63 °FClear.12 mph49%29.86 "HgN/A
1:30 PM63 °FClear.13 mph45%29.86 "HgN/A
1:00 PM64 °FClear.12 mph43%29.86 "HgN/A
12:30 PM63 °FClear.15 mph45%29.86 "HgN/A
12:00 PM63 °FClear.14 mph45%29.86 "HgN/A
11:30 AM63 °FClear.15 mph39%29.86 "HgN/A
11:00 AM63 °FClear.15 mph45%29.89 "HgN/A
10:30 AM63 °FClear.10 mph45%29.89 "HgN/A
10:00 AM63 °FClear.10 mph45%29.89 "HgN/A
9:00 AM61 °FClear.8 mph52%29.89 "HgN/A
8:00 AM55 °FClear.9 mph63%29.92 "HgN/A
7:30 AM54 °FClear.8 mph63%29.92 "HgN/A
7:00 AM52 °FClear.8 mph67%29.92 "HgN/A
6:30 AM50 °FClear.8 mph71%29.92 "HgN/A
6:00 AM50 °FClear.8 mph71%29.92 "HgN/A
5:30 AM50 °FClear.6 mph71%29.92 "HgN/A
5:00 AM50 °FClear.5 mph71%29.92 "HgN/A
4:30 AM48 °FClear.5 mph76%29.95 "HgN/A
4:00 AM50 °FClear.8 mph71%29.95 "HgN/A
3:30 AM50 °FClear.9 mph76%29.95 "HgN/A
3:00 AM52 °FClear.8 mph72%29.95 "HgN/A
2:30 AM50 °FClear.6 mph76%29.95 "HgN/A
2:00 AM52 °FClear.6 mph72%29.98 "HgN/A
12:30 AM52 °FClear.3 mph62%30.01 "HgN/A
12:00 AM52 °FClear.3 mph62%30.01 "HgN/A
11:30 PM
Sat, Apr 18
52 °FClear.2 mph62%30.01 "HgN/A
11:00 PM48 °FClear.1 mph66%30.01 "HgN/A
10:30 PM48 °FClear.3 mph66%30.01 "HgN/A
10:00 PM52 °FClear.No wind62%30.01 "HgN/A
9:30 PM52 °FClear.2 mph62%30.01 "HgN/A
9:00 PM54 °FClear.No wind54%30.01 "HgN/A
8:30 PM54 °FClear.No wind51%30.01 "HgN/A
8:00 PM55 °FClear.No wind47%30.01 "HgN/A
7:30 PM55 °FClear.1 mph44%30.01 "HgN/A
7:00 PM57 °FClear.5 mph44%30.01 "HgN/A
6:30 PM59 °FClear.7 mph42%30.01 "HgN/A
6:00 PM61 °FClear.9 mph45%30.01 "HgN/A
5:30 PM63 °FPassing clouds.10 mph45%30.01 "HgN/A
5:00 PM64 °FScattered clouds.12 mph37%30.01 "HgN/A
4:30 PM64 °FScattered clouds.12 mph40%30.01 "HgN/A
4:00 PM64 °FScattered clouds.15 mph43%30.01 "HgN/A
Weather by CustomWeather, © 2015

See weather overviewHow to use our weather pages